Dewpoint
54 54 55 55 55 55 55 55 55 55 55 55 56 56 56 57 55 46 37 43 49 51 54 51 46 44 42 41 42 39 34 31 32 31 30 34 37 39 46 50 55 57 55 57 58
54 54 54 55 55 55 55 55 55 55 55 55 55 56 56 57 51 44 40 48 47 50 48 47 45 44 42 40 39 37 33 33 34 33 32 33 34 37 49 50 53 55 58 60 57
54 54 54 55 54 54 55 54 54 54 55 55 55 56 57 57 41 33 46 45 43 47 46 48 46 41 40 39 37 35 33 33 33 33 33 33 33 38 40 46 52 53 58 59 56
54 54 54 55 54 54 54 54 54 53 54 54 55 56 56 49 20 32 44 45 44 44 42 41 41 40 38 36 38 35 34 32 33 34 33 34 35 32 41 47 54 57 59 59 58
54 54 54 54 54 54 53 53 53 54 54 54 55 56 47 32 28 32 39 38 38 39 38 38 41 41 38 39 39 36 30 32 33 33 33 35 33 32 36 53 56 58 59 59 58
54 54 54 54 54 53 53 53 53 53 54 54 55 55 41 22 30 33 34 35 36 37 38 38 38 42 40 39 38 35 34 34 33 31 32 32 32 41 44 53 52 55 57 58 58
54 54 54 54 53 53 52 52 53 53 53 54 55 51 40 27 32 33 34 34 35 37 35 38 41 41 41 38 38 36 34 32 29 29 29 34 27 34 47 53 54 56 56 57 58
54 54 53 52 52 52 53 53 54 54 54 54 54 47 30 38 34 33 34 34 36 36 37 38 42 40 40 39 34 32 29 25 27 28 28 26 23 29 49 50 51 52 48 48 50
54 53 52 52 52 53 53 53 54 54 53 53 46 40 23 33 30 34 35 33 34 35 36 40 39 37 36 31 26 26 23 23 23 27 25 24 23 39 49 49 47 47 46 47 49
53 53 53 53 52 52 52 53 51 45 48 46 41 28 26 22 32 33 35 34 33 33 32 38 33 28 27 26 22 23 23 23 25 24 23 22 23 39 47 46 45 46 49 50 50
52 52 53 53 51 50 47 35 26 30 30 25 25 23 24 30 34 32 34 31 32 28 25 29 23 24 26 28 27 26 23 22 22 25 24 21 21 23 45 46 47 48 47 48 51
50 52 52 52 51 47 40 36 38 39 29 34 33 30 31 33 29 29 32 28 29 25 27 26 19 26 28 26 24 24 23 23 25 25 25 21 20 21 43 42 40 48 51 52 53
50 52 52 51 50 42 39 39 42 43 34 32 32 27 24 31 28 27 29 30 29 25 25 26 23 26 25 22 23 24 23 24 25 26 24 21 16 17 38 43 42 41 46 52 53
50 51 51 50 35 43 39 43 43 42 27 24 21 26 26 31 21 33 32 30 24 21 27 24 26 24 22 19 25 23 25 25 25 24 19 21 13 17 20 35 42 45 45 51 53
50 50 49 46 40 36 40 44 42 40 -10 20 19 28 27 25 26 24 33 30 23 23 26 11 24 24 22 18 26 23 26 27 27 25 21 17 11 15 20 21 29 45 49 50 53
50 50 47 40 44 44 45 44 41 21 -8 9 20 19 18 25 25 25 27 31 29 22 21 26 28 28 24 25 26 26 25 22 26 25 16 19 13 14 16 19 22 25 33 44 50
49 49 45 44 34 45 45 40 8 8 13 7 8 17 18 17 19 21 17 20 13 0 1 13 15 22 25 17 20 24 20 10 9 13 12 17 15 12 17 19 21 23 28 42 48
49 49 44 44 45 45 42 21 -12 0 10 19 16 18 14 17 14 16 15 15 20 15 12 9 -6 12 21 22 20 23 20 15 6 13 15 18 11 15 22 24 25 26 28 29 45
46 45 45 45 44 44 31 1 -11 14 18 12 9 11 8 16 14 9 8 15 19 16 2 8 -2 13 22 24 24 18 19 22 19 20 16 15 14 18 22 22 23 23 24 26 30
38 41 43 44 43 40 23 4 15 19 21 20 3 10 7 4 9 7 6 17 21 20 20 14 8 11 16 23 26 22 25 12 16 3 8 14 13 14 17 17 22 21 22 25 27
41 21 42 43 42 32 10 12 23 22 24 18 14 13 10 10 12 8 5 16 22 22 21 19 15 4 6 7 11 14 19 17 16 17 14 12 8 18 18 17 20 22 21 22 23
31 10 42 43 21 32 23 26 21 19 27 22 22 17 14 15 12 9 6 15 22 22 13 19 15 9 2 10 21 20 18 15 8 5 10 7 5 12 15 16 19 16 17 18 20
20 26 42 37 7 17 24 22 20 20 22 24 21 22 20 17 8 9 12 20 22 19 15 17 7 1 -0 5 8 11 14 17 15 16 13 7 4 13 12 10 11 14 15 18 20
25 11 30 33 30 25 17 15 18 25 22 23 22 19 18 17 19 14 14 17 20 21 25 21 16 7 -2 -1 5 9 12 12 13 12 10 10 8 9 11 12 11 12 14 20 21
28 14 27 12 26 27 28 24 20 16 23 23 17 20 18 15 14 12 13 15 16 20 26 22 14 15 14 12 14 14 14 15 14 14 11 10 10 11 12 12 13 14 17 22 22
24 19 31 20 25 25 21 19 19 20 19 17 18 19 19 16 15 14 16 16 13 18 24 25 15 21 18 16 16 15 15 15 13 14 14 14 13 17 20 19 19 18 21 21 22
38 36 19 10 22 19 14 19 19 19 18 21 19 14 11 12 19 19 19 18 16 13 16 21 20 17 7 12 12 8 9 10 13 20 15 17 20 23 23 23 22 24 22 21 21
Wind_Speed
10 9 9 9 10 10 11 12 12 13 14 15 16 16 17 18 16 2 4 4 5 11 11 12 8 12 7 3 6 3 5 9 5 5 6 12 13 11 16 7 5 3 6 8 23
10 10 10 11 11 11 11 11 13 14 14 16 17 16 15 15 4 3 4 6 6 9 10 10 14 15 5 3 2 5 6 8 9 13 16 14 16 14 9 7 1 8 6 25 25
10 10 11 11 13 13 13 12 12 14 15 16 17 19 17 8 1 3 5 6 7 7 4 6 8 4 4 3 3 3 13 17 20 20 18 15 18 4 9 6 1 2 20 26 24
12 11 12 13 13 13 14 14 13 13 14 16 17 18 22 2 6 4 6 8 9 7 5 8 8 6 5 6 7 5 13 16 16 16 16 14 10 11 4 9 4 12 23 21 20
10 11 11 12 12 12 13 14 15 14 14 16 16 18 5 3 3 8 8 11 9 3 4 5 4 5 5 9 11 9 7 11 14 16 11 14 17 11 15 8 5 15 13 29 25
11 12 12 13 14 13 13 15 15 16 15 14 13 13 2 6 4 6 9 9 5 3 3 3 3 6 8 8 6 6 17 23 16 15 9 11 14 2 6 10 10 12 17 16 20
12 12 12 14 15 16 17 16 15 16 15 12 9 3 1 4 2 7 7 6 5 3 5 4 3 2 3 10 4 13 13 17 10 7 5 2 10 10 6 10 11 10 8 18 19
11 13 14 15 16 18 19 19 18 15 11 8 3 1 5 4 4 9 8 10 5 9 6 7 4 5 3 7 10 7 3 12 9 1 6 7 12 11 11 13 12 13 8 9 17
12 13 15 17 19 19 20 20 16 10 3 1 0 1 5 7 5 12 4 10 15 4 4 3 1 2 6 8 9 5 16 18 12 3 2 9 9 8 7 13 13 7 2 5 11
12 15 17 19 22 24 23 13 3 2 1 2 3 3 3 8 7 11 6 8 4 13 5 3 4 3 8 14 12 17 9 11 7 10 4 6 12 4 7 13 11 7 5 8 14
14 15 16 18 22 23 13 3 6 2 4 2 4 4 8 12 4 4 6 9 6 5 10 5 10 14 15 9 8 6 4 10 13 6 13 7 8 7 12 10 12 11 15 17 24
17 16 16 17 19 18 6 7 2 1 7 4 5 7 6 1 5 6 8 6 6 7 10 7 7 10 11 6 11 5 9 11 14 14 9 4 10 5 15 13 14 12 11 16 10
18 18 18 19 13 6 10 4 2 2 2 5 3 4 5 1 4 7 8 3 4 6 8 4 7 12 10 8 15 11 5 10 11 18 1 10 2 4 8 4 6 8 10 14 19
18 17 17 20 3 2 4 4 4 0 4 2 2 2 2 2 3 3 1 2 5 7 8 5 4 11 15 9 8 8 3 11 13 12 5 8 4 7 5 8 12 12 12 13 14
18 17 17 9 1 2 3 5 3 1 4 1 2 1 2 2 6 2 2 2 6 8 3 7 10 15 11 14 9 10 20 11 4 4 4 14 5 9 9 10 5 5 9 11 15
19 15 13 4 2 0 3 2 3 2 5 1 1 3 6 2 2 4 2 2 2 4 2 7 5 2 4 17 6 17 7 6 5 5 6 9 6 5 4 2 1 2 5 12 14
17 14 7 1 2 4 2 1 3 4 3 2 2 3 4 4 4 2 5 6 6 9 13 10 5 6 4 11 7 21 12 8 7 9 3 9 5 3 9 8 5 4 8 8 6
19 10 2 1 3 3 2 2 4 2 3 2 2 5 3 3 2 3 2 3 1 2 1 6 10 9 7 2 5 6 5 5 4 7 8 9 5 5 5 4 4 4 4 5 2
14 2 2 3 3 3 3 3 5 3 2 5 7 2 2 1 2 5 3 2 1 3 5 6 6 6 3 3 2 6 7 1 2 1 3 6 5 4 2 4 6 6 5 3 3
4 4 2 4 2 3 2 6 3 1 3 0 2 1 3 4 4 5 3 1 1 0 1 1 8 3 6 2 1 1 2 4 5 6 6 7 7 3 4 6 3 5 9 11 9
3 4 2 3 1 4 3 6 3 1 2 2 2 3 2 4 2 3 4 1 2 2 0 1 2 7 5 6 9 6 2 5 1 2 2 8 10 6 5 7 2 7 9 11 14
3 3 4 5 2 1 3 2 3 3 2 2 1 3 3 2 4 3 3 1 1 1 3 0 1 6 16 10 5 1 1 3 4 5 2 3 11 3 3 7 4 11 12 16 10
3 3 2 3 5 3 5 3 2 2 3 2 2 3 1 1 3 3 4 2 2 2 1 2 2 8 11 2 2 2 1 1 1 2 9 4 9 1 13 24 26 20 16 17 13
4 2 1 3 2 2 3 4 2 1 2 2 2 2 2 3 5 5 4 3 2 4 4 4 5 12 13 18 4 14 7 9 6 6 7 20 25 30 29 26 30 23 15 10 9
2 4 1 1 3 4 2 2 3 2 1 1 1 1 1 3 5 6 3 8 7 4 4 4 9 10 13 20 13 22 25 17 17 19 14 18 19 24 27 29 29 19 14 7 6
5 4 1 2 1 4 4 3 1 3 2 1 3 5 3 4 5 18 7 2 7 3 4 3 6 6 10 13 18 25 21 23 21 14 17 24 26 14 21 20 20 20 9 6 4
1 1 3 1 2 3 4 4 3 2 1 0 2 6 11 10 5 13 14 16 19 16 10 5 5 0 12 4 6 15 2 2 13 14 3 6 12 24 26 27 23 26 18 12 10
Wind_Direction
353 351 344 344 336 336 332 331 334 335 340 335 334 335 334 337 332 14 347 265 304 318 327 325 347 332 346 258 211 146 247 260 272 280 269 315 337 329 300 202 109 87 168 159 138
351 345 343 337 332 328 323 324 326 330 331 330 331 331 333 335 348 297 250 279 320 323 336 337 327 326 316 271 273 188 222 248 234 250 273 291 306 308 329 305 132 109 103 134 139
353 347 341 335 331 325 319 318 323 325 326 326 331 329 332 333 17 309 235 280 315 308 292 293 298 332 315 302 293 244 246 255 260 262 268 283 290 290 318 293 168 174 140 146 144
347 343 337 331 326 321 317 318 320 321 322 325 329 332 329 121 32 274 251 272 300 322 342 341 350 2 321 317 305 292 270 266 266 271 275 264 269 295 256 278 156 128 149 158 163
344 339 334 326 323 320 317 319 318 318 321 322 329 334 4 9 285 273 312 308 311 289 337 342 355 351 320 294 311 270 296 296 283 290 283 254 262 271 286 182 166 141 167 173 168
343 338 334 328 322 317 314 313 311 311 313 318 326 331 16 14 247 280 315 314 293 268 274 279 285 275 279 259 277 276 297 287 277 276 272 267 269 265 261 178 212 186 172 190 169
340 337 334 325 322 316 312 307 304 302 306 309 320 350 1 274 239 309 307 304 287 250 282 237 232 300 310 295 279 288 297 299 283 238 227 214 289 250 223 160 136 146 165 202 182
341 336 330 324 319 315 310 306 299 296 296 296 308 346 264 271 301 313 322 313 270 272 219 229 220 262 222 289 316 332 319 346 316 231 215 163 267 287 180 168 128 115 80 2 2
340 335 331 326 320 315 310 302 299 290 249 252 32 1 308 322 331 320 309 305 312 316 291 155 129 295 336 345 350 2 335 332 340 41 179 177 246 339 127 141 152 186 58 307 317
341 335 332 328 327 324 321 306 57 348 112 148 262 312 280 321 305 310 289 296 297 329 34 42 22 349 6 1 342 313 334 330 318 356 336 253 269 310 170 150 181 185 197 179 214
341 337 333 331 333 333 347 355 14 333 9 236 293 278 301 317 306 303 322 336 1 42 4 355 9 359 329 321 295 294 317 337 312 302 358 313 294 251 202 194 191 200 192 205 206
339 335 333 331 333 340 29 61 64 200 314 299 251 272 274 26 309 326 5 23 20 0 352 4 337 322 320 344 349 348 358 346 317 315 329 282 267 290 183 205 194 185 182 161 143
343 339 334 333 329 40 69 59 340 150 295 301 240 272 289 37 303 304 8 353 358 339 344 285 290 329 357 348 359 331 328 335 318 318 12 347 28 55 229 256 204 213 180 183 158
345 340 340 334 69 351 54 341 339 201 7 258 286 302 307 283 295 249 17 38 360 321 331 281 306 345 343 349 360 321 252 315 318 350 340 2 27 33 31 239 214 229 207 179 164
343 340 344 31 351 45 323 333 359 317 321 183 263 301 316 293 319 347 14 24 334 319 355 329 333 344 343 333 334 285 317 307 324 347 342 9 61 356 61 38 61 222 234 235 199
341 336 340 5 54 9 329 343 88 334 252 342 291 334 348 308 281 304 323 13 287 330 303 266 291 313 294 312 315 322 358 41 37 16 36 352 28 13 25 8 93 59 3 227 198
334 326 332 299 322 311 354 47 14 220 332 330 318 332 336 289 316 327 337 7 11 356 353 330 335 327 343 342 360 7 19 7 17 14 315 341 359 309 319 357 7 18 8 359 198
325 315 325 326 339 339 44 355 225 252 273 343 293 304 269 349 271 305 290 303 5 56 335 348 332 355 354 22 300 337 41 50 4 345 313 334 4 348 328 3 27 44 34 31 78
335 4 354 345 354 17 78 255 237 215 280 333 324 300 292 262 291 358 339 234 259 15 6 347 298 319 295 318 6 339 26 297 300 264 305 320 318 290 303 98 104 94 73 54 326
11 345 4 318 14 68 86 251 257 324 313 147 275 333 298 316 320 351 301 153 154 62 37 300 295 296 311 326 328 38 297 0 20 6 338 320 308 269 251 311 305 324 338 341 324
50 341 312 338 30 77 232 249 290 302 286 245 240 285 286 303 315 298 279 24 111 169 39 271 223 294 340 20 324 344 31 48 50 124 6 328 290 239 232 328 267 353 338 308 300
73 303 342 351 292 108 217 241 334 302 306 283 232 233 257 306 293 283 276 288 86 121 341 274 189 282 292 294 269 236 79 77 29 302 341 217 272 306 178 67 19 331 312 312 297
131 254 22 64 269 270 303 294 271 276 286 286 294 249 281 267 290 250 291 238 216 203 331 190 273 305 325 345 339 85 288 109 160 152 240 228 257 59 318 326 314 309 309 315 319
121 254 333 81 155 249 304 289 248 188 284 295 301 336 310 282 246 283 291 326 295 241 215 176 218 223 255 272 286 293 260 262 256 259 247 239 268 286 297 301 307 311 311 307 312
118 219 186 204 232 213 260 264 281 283 233 273 284 243 298 298 312 268 263 316 287 275 189 196 251 259 253 268 275 275 280 270 241 238 245 274 277 295 309 302 300 297 303 313 351
174 176 136 176 238 218 228 237 276 311 312 297 225 321 273 247 254 291 300 260 269 288 214 191 261 290 284 268 273 282 272 268 264 240 241 259 287 337 322 330 327 316 299 297 336
233 28 128 199 167 191 231 191 160 43 285 203 135 339 301 291 276 269 258 258 253 255 253 223 231 313 289 319 310 300 12 85 71 40 313 41 351 340 347 347 8 7 346 322 334